Regional Weather Roundup
Issued by NWS

Home | Current Version | Previous Version | Graphics & Text | Print | Product List | Glossary On
Versions: 1 2 3 4 5 6 7 8 9 10 11 12 13 14 15 16 17 18 19 20 21 22 23 24 25 26 27 28 29 30 31 32 33 34 35 36 37 38 39 40 41 42 43 44 45 46 47 48 49 50
000
ASUS43 KFSD 300702
RWRSD

WEATHER ROUNDUP FOR SOUTH DAKOTA
NATIONAL WEATHER SERVICE SIOUX FALLS SD
200 AM CDT SAT AUG 30 2014

NOTE: "FAIR" INDICATES FEW OR NO CLOUDS BELOW 12,000 FEET WITH NO
SIGNIFICANT WEATHER AND/OR OBSTRUCTIONS TO VISIBILITY.


SDZ001>005-009-010-012>017-300800-
NORTHWEST AND NORTH CENTRAL SOUTH DAKOTA

CITY           SKY/WX    TMP DP  RH WIND       PRES   REMARKS
BUFFALO          N/A     54  51  90 S7        29.95S
FAITH            N/A     56  54  93 S8        30.01S
MOBRIDGE       CLEAR     51  51 100 N5        29.96S
$$

SDZ012>016-024>037-041>051-057-063-072>074-300800-
SOUTHWEST AND SOUTH CENTRAL SOUTH DAKOTA

CITY           SKY/WX    TMP DP  RH WIND       PRES   REMARKS
RAPID CTY ARPT CLEAR     53  51  93 CALM      30.03F
PIERRE         CLEAR     59  56  89 W5        29.97R
CUSTER         CLEAR     49  47  93 N3        30.12F
ELLSWORTH AFB  CLEAR     59  54  84 S3        30.03F
PHILIP         CLEAR     56  53  90 CALM      30.00S
PINE RIDGE     CLEAR     52  51  97 CALM      30.03F
WINNER         FAIR      57  55  93 NW7       29.97R
$$

SDZ004>011-016>023-039-040-300800-
NORTHEAST SOUTH DAKOTA

CITY           SKY/WX    TMP DP  RH WIND       PRES   REMARKS
ABERDEEN       CLOUDY    59  55  87 N10       29.92R
WATERTOWN      CLOUDY    61  59  93 N10       29.88R
SISSETON         N/A     61  58  90 N15       29.87R
$$

SDZ017-020-022-023-036>040-048>070-300800-
SOUTHEAST SOUTH DAKOTA

CITY           SKY/WX    TMP DP  RH WIND       PRES   REMARKS
SIOUX FALLS    PTCLDY    67  64  90 NW10      29.85R THUNDER
HURON          CLOUDY    62  58  86 N9        29.90S
CHAMBERLAIN    CLEAR     60  57  91 N6        29.95S
MITCHELL       CLOUDY    63  60  90 N14G21    29.90R
YANKTON        PTCLDY    64  63  94 MISG      29.87S
$$

ABBREVIATIONS USED IN REMARKS
   TC - TEMPERATURE IN CELSIUS
  WCI - WIND CHILL INDEX
   HX - HEAT INDEX
  VSB - VISIBILITY



USA.gov is the U.S. government's official web portal to all federal, state and local government web resources and services.